Hourly Weather Roundup
Issued by NWS Central Illinois

Home | Current Version | Previous Version | Text Only | Print | Product List | Glossary On
Versions: 1 2 3 4 5 6 7 8 9 10 11 12 13 14 15 16 17 18 19 20 21 22 23 24 25 26 27 28 29 30 31 32 33 34 35 36 37 38 39 40 41 42 43 44 45 46 47 48 49 50
000
NZUS43 KILX 280910
HWRILX

AREA WEATHER ROUNDUP
NATIONAL WEATHER SERVICE, LINCOLN IL
400 AM CDT SUN AUG 28 2016


CITY           SKY/WX    TMP DP  RH WIND       PRES   REMARKS
BLOOMINGTON    CLOUDY    72  70  93 S6        30.14S
CHAMPAIGN      CLEAR     69  67  93 CALM      30.13F
DANVILLE       PTCLDY    69  69  99 CALM      30.11S FOG
DECATUR        PTCLDY    71  69  93 NW5       30.13S
EFFINGHAM      CLEAR     70  70 100 CALM      30.13S FOG
FLORA          PTCLDY    71  70  96 CALM      30.12R FOG
GALESBURG        N/A     69  69  99 CALM      30.11S FOG
JACKSONVILLE   MOCLDY    71  70  96 CALM      30.10F
LACON          PTCLDY    69  69  97 E3        30.11S FOG
LAWRENCEVILLE  CLEAR     73  72  96 NE5       30.12R FOG
LITCHFIELD     MOCLDY    71  67  87 S6        30.12F
$$


CITY           SKY/WX    TMP DP  RH WIND       PRES   REMARKS
LINCOLN        CLOUDY    72  72  99 CALM      30.12S
MACOMB         PTCLDY    68  68  99 CALM      30.13S
MATTOON        CLEAR     73  71  93 S6        30.11S
MT CARMEL AP   CLEAR     72  71  97 CALM      30.11S FOG
OLNEY-NOBLE AP CLEAR     70  70 100 CALM      30.12S
PARIS          CLEAR     69  69 100 CALM      30.14R FOG
PEORIA         CLEAR     71  71 100 SE5       30.11S
PONTIAC        PTCLDY    70  70 100 CALM      30.13S
RANTOUL        PTCLDY    73  71  94 CALM      30.14S
ROBINSON       FOG       67  67 100 CALM      30.13S VSB 1/4
SPRINGFIELD    CLOUDY    76  73  91 CALM      30.12S THUNDER
TAYLORVILLE    CLOUDY    70  70  99 CALM      30.13R FOG
$$

...REGIONAL REPORTS...


CITY           SKY/WX    TMP DP  RH WIND       PRES   REMARKS
CHICAGO O`HARE CLOUDY    73  69  87 NW3       30.13R
KANKAKEE       CLOUDY    72  70  95 CALM      30.14R
MOLINE         PTCLDY    69  68  96 E5        30.11R
MOUNT STERLING PTCLDY    69  69  98 CALM      30.10F FOG
MOUNT VERNON   CLEAR     70  64  83 CALM      30.11F
PITTSFIELD     CLOUDY    72  70  96 W3        30.12S
QUINCY         CLEAR     71  71 100 CALM      30.10S
ROCKFORD       CLOUDY    69  67  93 CALM      30.14R
$$


CITY           SKY/WX    TMP DP  RH WIND       PRES   REMARKS
BURLINGTON     CLEAR     70  70 100 CALM      30.10S FOG
CEDAR RAPIDS   CLEAR     66  66 100 CALM      30.10F
DES MOINES     CLOUDY    69  68  96 E5        30.09S
KIRKSVILLE     CLEAR     68  68 100 CALM      30.10F FOG
OTTUMWA        PTCLDY    68  66  93 SE3       30.10S
ST LOUIS       MOCLDY    77  71  82 SE6       30.11F
$$


CITY           SKY/WX    TMP DP  RH WIND       PRES   REMARKS
TERRE HAUTE    CLEAR     70  68  93 CALM      30.13S
EVANSVILLE     CLEAR     76  74  93 CALM      30.11S
INDIANAPOLIS   PTCLDY    73  71  93 CALM      30.14R
LAFAYETTE      CLEAR     69  69 100 CALM      30.12S
MADISON        FOG       64  64 100 S3        30.13R VSB<1/4
MILWAUKEE      FOG       66  64  93 CALM      30.13S VSB 1/4
$$






USA.gov is the U.S. government's official web portal to all federal, state and local government web resources and services.